Location: Brunembert
(50.7122°N, 1.8935°E)
Time: 14:33:24
(UTC+00:00)

Cosmos 1500 Rocket - Pass Details

Date: 07 August 2021
Orbit: 602 x 632 km, 82.5° (Epoch: 23 September)

Event Time Altitude Azimuth Distance (km) Brightness Sun altitude
Exits shadow 20:35:33 11° 153° (SSE) 1,923 5.5 -9.8°
Maximum altitude 20:39:19 33° 90° (E) 1,058 4.4 -10.2°
Drops below altitude 10° 20:43:20 10° 27° (NNE) 2,024 6.4 -10.7°
Sets 20:45:44 0° 18° (NNE) 2,939 7.4 -11.0°
